Temp
10 9 9 9 9 9 9 9 9 9 8 9 9 8 8 8 8 8 8 8 8 8 8 8 8 8 9 11 11 10 10 10 10 10 10 13 15 17 18 17 17 14 19 21 21 20 21
10 10 9 9 9 9 9 9 8 8 8 8 8 8 8 8 8 7 7 7 8 8 8 8 8 8 9 10 10 9 9 9 10 9 10 13 16 17 19 18 18 18 17 20 20 20 20
11 10 9 9 9 9 9 9 8 9 8 8 8 8 7 7 8 7 7 7 8 8 8 8 8 8 9 11 10 9 9 9 9 10 9 11 13 17 18 17 18 19 18 15 19 20 20
11 10 10 9 9 8 8 8 8 9 8 8 8 8 7 7 7 7 7 7 7 8 8 7 7 8 10 9 9 9 8 10 10 9 9 10 11 16 18 18 18 18 18 17 19 19 19
12 10 9 9 8 8 8 8 8 8 8 8 8 8 7 7 7 7 7 7 7 8 8 8 8 8 9 8 9 8 8 10 10 10 9 10 12 16 16 17 17 18 19 19 17 19 19
12 11 10 9 8 8 8 8 8 8 8 8 8 7 7 7 7 7 7 8 8 8 8 8 8 9 9 8 7 8 8 8 12 12 11 10 13 15 17 18 17 18 19 19 19 18 19
12 11 10 10 9 8 8 8 8 8 7 8 8 7 7 7 7 7 7 9 11 10 9 11 10 10 11 7 6 7 8 9 12 11 11 9 12 15 17 18 20 20 18 18 19 19 18
13 11 10 10 9 8 8 8 8 7 7 7 7 7 7 6 6 7 7 10 9 8 11 10 10 10 10 8 9 8 9 12 11 10 11 10 13 17 17 17 18 18 18 18 18 18 18
13 12 11 11 9 8 7 7 7 7 7 7 7 6 6 6 7 6 7 8 8 7 10 11 11 10 10 10 10 10 11 13 12 11 10 11 14 16 16 16 17 18 18 18 19 17 18
13 12 11 11 10 9 7 7 7 7 7 7 7 6 6 6 7 7 8 8 8 8 10 11 11 10 11 11 9 9 10 11 12 11 10 12 15 15 16 16 18 16 17 18 17 18 18
13 12 11 11 10 9 8 7 7 7 7 6 6 6 6 6 7 8 7 8 7 8 13 11 11 11 11 11 11 10 10 13 12 11 10 12 14 15 15 16 18 16 16 17 17 18 18
13 12 12 11 10 10 8 7 6 7 6 6 6 6 6 6 6 7 7 8 8 10 11 10 12 11 11 12 11 11 12 12 11 12 11 12 13 15 16 15 17 15 17 17 17 17 16
13 12 11 11 11 10 8 7 6 6 6 6 6 6 6 6 8 7 7 9 10 12 10 10 12 12 12 11 11 11 12 11 11 10 11 12 13 13 14 15 15 17 18 15 15 15 16
13 12 11 11 11 10 9 7 6 6 6 6 6 6 6 6 7 7 8 10 12 10 11 12 13 13 11 11 11 10 12 12 12 11 12 12 13 13 12 16 16 17 18 17 15 16 17
13 12 11 11 11 10 9 7 6 6 6 6 6 6 6 7 7 7 9 11 11 10 13 13 12 13 13 12 11 10 10 12 14 15 14 13 12 12 12 13 15 16 15 16 15 13 15
13 12 11 11 10 10 9 8 6 6 6 6 6 7 7 7 7 7 9 10 10 11 12 13 13 14 14 13 12 11 11 13 13 14 14 13 12 12 12 13 14 15 16 15 15 14 16
13 11 11 11 10 9 9 8 6 6 6 7 7 9 6 7 7 8 10 9 11 12 12 13 14 14 14 14 13 12 11 11 13 13 14 14 15 11 13 13 15 15 14 15 16 16 16
12 10 9 11 10 9 8 8 7 6 6 6 8 9 6 7 9 9 10 10 11 13 12 13 14 14 14 14 14 14 12 13 13 14 14 13 14 12 12 13 13 16 16 17 16 15 15
11 10 10 10 9 9 8 8 7 7 6 6 10 9 6 7 9 9 10 11 12 13 13 13 14 14 14 14 14 13 13 12 13 13 14 14 13 12 11 12 13 13 15 16 15 14 13
10 9 10 10 9 9 8 8 7 8 7 7 9 8 8 7 9 9 11 12 12 12 13 13 13 14 14 14 13 13 13 12 13 14 12 14 13 14 15 15 15 13 14 15 15 13 14
9 10 9 9 9 8 8 7 8 8 7 7 8 10 9 8 9 10 10 11 12 12 13 13 13 14 14 14 13 13 13 12 12 12 13 14 12 10 13 13 13 13 14 14 13 13 13
9 7 7 9 8 8 7 7 8 7 7 6 9 9 7 8 8 9 10 12 12 12 13 13 13 13 13 14 14 14 13 14 14 12 12 12 11 11 11 11 12 12 13 14 15 15 14
8 7 7 8 8 7 7 8 8 7 7 6 2 3 9 7 8 10 12 11 11 11 12 12 13 13 13 12 12 13 14 14 14 14 12 12 11 11 12 10 11 12 13 13 14 14 14
8 7 7 7 7 7 7 7 7 7 8 7 4 6 10 9 10 11 9 9 10 10 12 12 12 13 10 11 11 13 13 12 13 12 13 12 12 11 12 10 12 13 13 13 13 14 14
7 6 6 7 7 7 7 7 7 8 7 7 5 6 9 9 9 8 8 8 9 10 10 10 10 9 9 11 13 13 13 13 12 12 12 13 13 11 12 12 14 14 12 13 13 14 14
6 6 5 6 7 7 7 7 7 7 7 7 5 5 7 9 7 6 7 7 9 9 10 9 9 8 10 12 12 12 13 13 12 11 11 12 13 13 11 12 12 14 13 13 13 14 14
6 6 6 5 6 6 6 6 6 6 6 6 4 4 6 7 4 5 7 8 6 7 9 8 8 9 9 12 10 12 13 12 13 12 11 10 11 12 12 12 13 14 13 13 13 13 14
5 6 5 5 5 5 6 6 6 5 5 6 2 4 5 5 4 4 4 5 5 6 9 6 8 7 7 10 12 12 12 12 12 12 12 13 12 12 12 11 11 13 12 13 13 13 13
5 6 5 5 5 5 5 5 5 5 5 5 3 3 4 5 4 2 2 2 3 4 6 5 5 5 5 7 9 10 11 10 12 13 10 12 13 13 13 14 13 12 13 12 11 11 12
Height
857 853 850 850 849 847 844 842 840 836 833 830 828 824 821 817 814 811 808 808 807 806 804 802 799 796 795 791 788 788 787 785 785 789 791 789 787 782 782 788 793 809 796 793 795 801 802
853 852 849 847 844 846 843 841 838 835 832 829 826 822 819 815 813 810 807 807 806 805 803 801 799 797 796 790 788 787 788 789 788 790 792 788 783 783 780 785 793 794 802 797 796 802 804
849 848 846 846 844 841 841 838 836 833 831 827 823 821 817 814 812 809 807 806 805 803 801 800 799 798 796 789 788 788 787 793 792 790 792 789 789 787 781 791 791 789 802 811 804 803 806
846 844 842 841 840 838 838 835 833 831 828 825 822 819 816 813 810 807 805 803 803 802 801 799 798 798 791 790 789 788 787 787 790 792 795 795 795 790 785 787 789 794 797 811 802 803 809
840 842 839 839 836 835 834 833 831 828 826 822 820 817 814 811 808 805 803 801 800 800 799 798 797 796 789 789 789 789 788 787 786 792 794 792 795 787 788 786 794 794 793 795 806 799 806
836 836 835 834 834 831 831 829 828 825 823 819 817 813 811 808 805 804 801 799 798 798 797 797 795 796 790 790 788 789 789 791 790 792 795 798 793 789 786 783 788 791 789 790 797 804 803
831 831 832 830 831 828 827 827 824 822 820 817 814 810 809 805 803 803 800 797 799 798 796 791 789 788 783 784 786 787 788 790 786 793 792 803 793 784 780 779 777 781 791 798 795 800 805
826 827 827 826 826 826 824 823 821 819 817 814 811 808 806 804 801 802 799 797 797 799 791 790 788 787 784 782 774 786 788 783 788 791 793 805 792 778 784 788 790 790 794 796 801 800 803
822 822 822 822 821 822 821 820 818 816 813 811 809 806 805 802 800 800 799 798 797 797 792 790 789 787 786 785 783 785 787 782 787 793 799 799 791 788 788 791 791 789 791 795 795 804 802
818 816 817 817 817 818 817 816 814 812 810 808 805 803 802 801 801 798 798 797 798 798 792 787 788 790 787 786 791 791 789 790 789 796 803 798 787 788 789 791 787 801 795 797 802 800 805
811 812 812 813 813 813 813 812 810 809 807 805 802 800 799 798 798 798 797 797 798 798 772 791 788 790 788 786 792 795 792 790 793 797 806 800 790 790 794 792 790 800 800 799 802 799 804
804 806 807 809 808 809 809 809 807 806 804 802 798 796 796 797 798 797 796 797 797 793 783 794 788 790 788 787 793 793 792 794 799 796 802 798 796 794 792 797 793 803 801 803 805 805 814
797 800 801 803 804 804 805 805 805 803 802 798 795 793 795 797 797 796 796 797 789 773 799 796 785 785 785 789 794 792 790 793 796 804 804 802 802 802 801 800 802 796 795 814 819 819 806
790 793 795 797 799 800 801 802 802 800 798 795 793 795 796 796 796 798 798 793 775 789 787 784 784 784 787 793 794 798 793 793 795 798 798 800 802 801 808 796 796 795 791 800 813 809 799
783 786 789 791 794 796 797 798 798 796 795 793 792 796 797 797 797 798 797 780 779 786 777 778 783 779 780 788 792 797 799 793 789 784 786 796 806 808 809 804 801 801 805 806 810 820 809
774 778 781 785 788 791 792 794 794 793 792 790 792 796 798 797 797 798 795 785 785 784 779 778 775 775 773 780 788 793 794 791 790 789 788 792 805 810 810 805 806 802 801 810 811 815 806
764 769 774 778 783 786 786 789 790 789 788 788 792 792 797 797 798 796 788 789 782 781 781 777 774 773 776 776 782 786 793 794 789 791 788 788 789 813 807 806 799 805 806 806 800 804 800
754 761 768 773 778 780 782 783 785 785 785 788 791 790 796 797 796 792 786 786 781 778 779 777 775 773 773 777 777 779 786 786 786 787 788 792 792 806 808 807 806 794 795 795 799 807 806
748 753 761 767 772 775 777 779 781 781 783 785 786 791 796 796 791 789 785 781 778 777 777 776 773 774 776 775 777 780 783 788 789 790 788 789 797 807 814 811 807 805 800 797 799 806 811
741 745 754 761 765 769 772 774 776 776 778 783 786 787 793 795 791 788 781 776 776 778 776 776 774 773 774 775 778 780 782 788 788 787 791 790 794 790 786 787 786 799 795 795 800 809 799
735 741 747 755 759 764 767 770 771 772 776 780 783 779 782 787 786 785 785 780 775 775 776 776 777 774 773 774 777 779 782 788 789 790 789 787 795 804 794 796 797 797 794 793 798 798 797
729 735 743 750 756 759 763 765 767 769 773 778 777 778 786 785 787 784 783 774 774 776 775 776 776 777 776 776 773 777 779 779 780 789 791 793 800 803 805 802 802 801 793 790 788 788 788
720 731 738 746 752 756 759 761 763 765 770 773 779 780 775 788 785 779 772 776 777 779 777 777 777 776 778 780 782 780 780 777 778 782 789 793 798 802 795 807 803 796 786 787 786 784 784
711 722 731 741 747 753 755 757 760 761 764 766 770 774 771 776 778 773 782 782 779 782 777 778 779 777 787 787 786 782 783 784 784 789 785 791 793 798 796 809 794 785 787 787 786 782 781
706 716 728 735 742 748 752 755 758 758 761 762 765 769 768 774 779 785 786 784 785 783 782 785 787 789 788 784 780 779 782 784 788 790 790 789 790 799 792 790 779 775 785 784 783 778 778
703 712 726 733 739 745 748 752 755 757 759 760 764 767 770 770 784 788 788 790 781 785 784 789 790 790 787 782 780 779 776 778 783 790 793 791 786 785 794 791 784 776 781 783 782 777 776
701 710 722 732 738 742 745 750 753 756 758 760 764 767 771 777 794 793 788 787 794 791 785 791 794 791 791 778 785 778 776 782 777 779 788 795 794 788 785 784 778 775 780 783 781 784 778
698 707 720 729 737 741 744 748 752 755 757 759 766 768 770 782 796 796 796 795 796 795 785 798 796 796 797 785 776 775 775 778 779 778 777 777 781 786 787 790 788 778 783 779 780 779 780
694 705 717 727 736 740 743 747 751 754 757 759 766 769 771 779 795 799 801 801 801 801 800 803 804 804 806 798 791 785 781 789 781 775 790 781 776 777 780 775 778 781 780 782 784 783 781
Wind_Speed
12 11 9 10 11 12 13 14 15 15 15 16 16 16 14 12 10 9 7 8 8 8 7 8 9 9 4 2 2 6 10 7 10 11 3 9 16 13 16 13 18 17 15 11 12 11 7
14 12 10 9 10 11 11 13 14 16 15 16 16 15 15 12 10 8 7 8 9 9 9 8 6 7 2 4 1 4 5 5 10 15 5 7 10 5 12 14 17 19 4 12 10 12 6
14 13 10 11 10 10 11 12 15 16 16 16 16 16 14 14 12 9 8 9 9 9 10 10 7 5 4 4 0 5 5 4 8 20 5 1 1 5 8 13 6 13 15 6 12 17 10
18 14 13 10 10 10 11 12 15 17 16 16 17 17 16 14 13 11 10 9 10 10 7 3 2 2 4 3 3 5 5 2 6 7 12 5 3 5 7 8 8 11 13 14 14 15 9
18 16 13 11 10 10 11 11 14 16 17 17 18 17 16 16 14 12 11 10 12 7 5 2 1 3 4 6 6 3 2 4 5 5 9 5 7 4 4 15 10 11 13 17 9 14 8
22 17 15 13 12 10 11 11 14 16 18 18 18 17 17 16 13 12 12 10 4 4 3 4 3 4 4 5 4 3 3 5 9 9 7 2 4 9 11 13 15 19 14 16 13 13 13
25 18 15 14 13 10 11 10 12 15 18 19 18 18 17 16 12 10 10 2 2 3 4 4 5 5 10 8 8 7 6 8 9 7 5 4 5 15 19 16 4 13 10 13 11 8 13
26 19 15 15 14 11 10 10 12 16 18 19 18 18 16 15 12 7 7 0 2 1 2 4 6 6 9 4 4 10 13 9 12 5 12 3 7 12 12 10 11 16 15 11 6 9 13
28 21 16 15 13 12 10 11 12 15 17 17 19 18 15 12 7 5 3 1 3 1 3 2 3 4 4 8 7 10 3 14 14 9 8 2 10 12 14 11 11 11 14 13 9 9 6
30 22 16 15 12 11 10 10 12 14 16 17 18 18 15 8 3 2 2 4 1 2 2 4 2 3 3 4 7 6 4 4 4 11 4 3 12 12 13 9 12 10 8 10 10 9 6
29 22 16 15 12 10 10 10 11 13 15 18 18 17 11 4 1 2 2 6 1 1 1 5 2 0 1 4 8 5 4 7 6 10 2 3 15 14 17 10 5 4 9 10 6 7 3
29 23 17 15 12 10 10 9 10 12 15 16 18 15 3 5 2 3 5 3 1 2 3 2 2 2 1 6 3 4 4 6 4 5 5 4 1 3 5 4 2 11 12 10 5 3 5
30 25 19 15 11 10 9 9 9 10 13 16 16 4 7 5 2 8 5 1 1 2 1 0 0 2 3 4 4 2 4 6 4 4 3 10 7 2 1 10 9 8 15 4 4 4 4
32 27 20 15 12 10 9 8 8 9 11 12 3 7 5 2 9 8 1 1 2 0 2 2 1 4 2 3 3 3 7 6 3 6 4 3 7 6 2 3 8 13 10 3 6 4 3
33 28 22 16 12 10 8 7 7 7 9 8 6 5 3 5 9 4 2 1 2 3 3 5 2 2 4 4 3 3 1 6 6 9 1 5 3 2 3 1 2 6 5 3 3 2 1
34 31 25 17 13 11 7 7 5 6 8 3 5 4 3 8 6 2 1 1 2 2 1 3 1 2 3 5 2 3 5 5 5 3 3 4 5 2 2 0 6 2 8 4 1 3 4
38 35 27 18 15 11 8 7 5 4 5 6 4 3 4 7 4 2 1 1 2 4 3 2 0 2 2 3 3 3 3 3 2 3 2 5 3 3 5 4 9 5 4 2 3 2 2
42 34 25 19 17 12 9 6 5 2 0 10 4 2 5 7 2 1 2 3 2 3 3 2 1 1 3 4 4 3 3 2 3 3 5 1 4 5 2 1 3 9 11 12 8 5 2
43 34 26 21 18 13 10 6 5 3 8 8 3 2 3 2 2 2 2 3 3 4 3 2 1 0 1 3 2 2 4 1 6 2 3 4 4 4 2 2 2 5 9 9 4 2 7
41 34 27 24 19 14 11 8 5 4 11 8 3 3 2 2 1 2 2 2 3 1 2 2 1 1 1 2 2 4 4 2 5 4 6 3 3 3 5 2 5 9 15 15 13 5 11
43 34 29 26 20 15 11 10 5 5 15 7 1 2 1 4 5 5 2 1 3 3 1 2 2 3 2 3 2 3 4 5 2 4 2 1 2 2 2 3 2 4 13 18 18 19 12
41 36 30 26 21 16 14 11 6 11 17 3 3 3 2 3 2 6 4 4 4 3 1 2 2 3 3 2 2 5 5 4 5 4 2 2 2 2 1 1 4 6 10 12 18 19 21
45 37 32 26 22 18 15 12 7 16 17 4 3 1 2 3 4 4 4 3 4 1 3 4 3 2 2 2 4 4 1 3 5 8 5 6 5 4 3 1 4 7 12 14 9 10 14
48 40 34 29 24 20 16 13 10 13 19 6 6 5 3 4 5 3 3 2 4 2 2 3 3 1 3 3 2 6 7 7 6 5 4 7 6 3 2 4 5 3 1 2 8 9 11
47 40 36 32 28 23 18 15 12 11 11 9 11 4 3 4 2 4 4 3 2 2 2 2 3 3 4 3 2 4 3 3 3 2 3 2 4 3 3 3 6 3 3 2 1 2 1
45 41 36 32 29 25 20 16 14 13 11 13 11 7 2 6 3 4 3 1 3 2 3 2 1 5 2 2 1 3 4 3 5 5 2 4 3 2 2 2 3 2 3 2 3 3 3
47 42 36 31 29 26 22 17 14 13 11 8 8 9 4 4 2 1 2 2 1 2 2 1 4 3 4 4 3 3 3 1 4 4 6 4 2 7 6 4 4 3 3 4 4 3 6
49 43 37 31 28 26 22 18 16 17 15 7 10 7 4 4 4 3 2 2 2 1 1 3 2 1 1 4 3 3 3 3 2 0 2 6 5 3 4 5 6 5 4 2 3 4 7
49 44 38 34 29 26 24 21 20 16 16 10 7 13 14 7 5 8 10 7 4 3 2 2 2 2 2 0 0 1 2 2 1 3 0 4 2 1 5 2 4 2 2 2 2 6 7
Wind_Direction
309 313 320 326 332 339 347 348 342 343 341 339 341 338 340 343 337 337 331 330 332 329 333 341 349 353 344 277 263 348 11 17 187 195 295 198 179 178 192 190 182 235 189 200 187 176 195
296 303 306 312 326 331 342 344 339 339 339 338 338 338 336 333 333 327 332 330 327 322 319 310 314 332 278 263 157 342 0 57 179 197 282 210 177 182 176 182 191 185 145 183 184 176 175
293 293 300 307 314 323 329 334 334 332 334 333 332 335 332 326 322 320 319 320 320 316 315 309 286 294 266 282 27 330 331 133 142 213 257 167 182 213 155 161 145 170 169 201 172 166 154
287 282 289 289 298 312 319 326 329 330 330 329 330 330 329 322 313 315 315 308 309 308 317 359 307 258 265 306 290 326 318 235 182 142 207 256 283 213 181 138 142 157 176 190 187 185 163
279 274 281 281 289 298 310 324 324 324 326 324 326 327 326 323 306 309 305 309 302 284 280 261 234 301 253 323 272 308 217 174 157 194 160 305 281 150 144 158 162 184 195 200 165 192 169
274 267 277 281 285 290 302 318 324 322 322 320 323 323 323 322 310 304 300 308 296 265 252 253 234 260 183 312 254 280 201 189 182 154 142 65 217 160 174 176 181 187 203 195 193 196 211
268 266 268 282 282 285 295 312 320 320 321 321 322 321 320 319 309 307 313 0 205 190 215 291 305 265 289 192 237 205 184 165 157 168 151 152 198 178 175 191 235 178 161 183 202 179 207
265 263 261 279 278 281 290 308 316 316 319 321 321 323 322 321 311 297 297 311 65 16 285 230 277 275 294 307 45 167 169 155 151 162 101 92 184 156 155 159 166 161 166 173 136 183 206
263 257 260 271 273 279 287 301 311 315 318 320 321 321 320 320 309 279 248 141 150 14 264 192 280 313 345 353 47 61 202 138 153 103 85 50 168 153 163 154 161 170 182 167 159 157 188
257 252 256 263 269 276 284 295 306 315 319 321 321 318 316 311 289 230 242 183 155 0 295 35 45 1 11 26 41 360 1 57 92 131 112 149 153 155 144 139 167 170 214 177 151 176 210
250 246 251 257 266 274 281 295 306 318 317 323 322 321 313 244 194 211 205 153 107 263 139 2 42 31 48 49 146 47 3 56 118 144 159 184 165 164 169 155 154 116 165 166 173 207 245
249 240 243 252 260 270 275 292 306 318 322 326 324 320 278 169 206 215 153 132 214 234 78 13 326 99 96 76 53 126 132 98 39 99 257 124 54 147 147 127 155 141 125 103 106 206 246
247 236 237 244 254 262 272 293 305 317 324 328 334 356 155 159 147 159 149 230 249 24 207 105 63 94 53 80 83 39 139 125 107 162 161 135 139 87 66 125 142 186 158 134 187 208 243
243 232 232 236 245 252 269 291 303 319 327 334 3 125 133 116 149 155 195 219 65 69 128 176 132 138 89 138 46 75 135 154 149 222 113 144 155 155 34 176 176 176 195 180 195 199 196
238 228 225 228 233 241 261 283 300 320 322 338 155 145 126 148 157 181 253 109 144 227 128 137 168 198 119 98 110 121 310 161 183 184 158 130 103 88 43 91 197 170 205 30 92 69 239
233 225 218 219 222 228 246 273 290 313 325 317 155 150 123 164 168 234 275 79 159 220 242 173 177 260 123 121 129 153 177 154 177 223 262 119 114 293 143 127 59 280 142 184 259 203 225
229 217 211 210 211 218 228 258 269 310 333 161 142 177 140 165 176 226 314 238 236 220 243 235 79 119 89 132 131 150 163 154 227 145 154 141 130 124 175 215 200 175 197 205 270 267 270
217 202 201 203 203 209 220 243 256 270 43 159 151 168 165 164 227 236 246 209 216 173 206 243 237 68 155 170 132 138 145 116 175 166 160 89 104 145 161 61 315 242 224 217 229 199 241
209 195 197 199 197 201 211 221 230 232 190 152 159 121 168 192 203 207 248 247 231 180 190 210 219 308 120 182 139 111 138 139 161 109 165 170 125 115 85 320 281 222 212 228 217 20 206
200 191 191 194 193 194 203 204 221 255 186 162 162 143 146 208 272 238 246 181 161 161 159 185 153 123 159 125 348 142 129 108 156 152 126 145 162 234 190 96 176 206 212 214 219 231 242
198 191 186 189 188 188 193 193 206 181 174 166 203 157 120 176 204 205 245 311 156 157 189 190 135 228 209 161 133 144 125 122 94 124 104 142 139 99 92 78 169 228 218 218 216 226 239
188 178 179 182 180 184 182 182 182 172 170 153 160 171 143 136 138 187 208 181 171 138 224 157 130 175 199 217 264 202 153 182 175 164 104 5 110 112 118 77 245 248 228 225 230 238 245
181 175 175 178 178 172 171 169 167 177 172 141 145 117 229 140 175 191 185 136 100 237 73 46 96 181 153 68 327 339 284 158 165 168 151 152 145 171 194 272 269 259 245 222 223 239 244
179 174 175 176 173 171 166 163 160 170 191 158 163 143 175 149 207 184 162 121 119 67 139 45 17 175 45 303 121 107 82 98 113 78 140 157 159 165 172 213 226 90 236 247 235 265 247
171 167 172 171 171 168 162 159 154 150 170 180 153 161 156 126 137 131 138 112 108 85 120 76 8 9 311 196 195 152 130 154 111 72 151 194 173 147 221 212 313 120 141 164 239 59 148
168 165 168 169 169 166 161 158 152 140 137 141 136 127 108 134 160 91 130 62 141 132 151 91 351 335 309 26 91 204 191 155 165 142 129 165 202 217 164 232 247 112 134 161 191 185 25
166 164 167 167 166 163 159 157 155 155 145 135 118 128 101 106 75 65 109 128 99 102 99 59 3 16 4 179 154 200 204 316 193 194 165 161 175 204 200 242 274 245 210 171 221 68 343
166 164 164 163 162 160 155 155 149 145 137 140 103 114 106 90 80 56 53 107 120 60 128 33 162 60 4 218 207 172 209 177 213 337 186 188 183 198 208 220 257 145 123 241 34 333 320
163 163 162 161 162 158 152 146 145 143 137 132 105 105 102 84 96 88 73 60 41 61 90 52 80 23 38 318 108 109 148 198 206 198 214 206 252 208 231 225 63 116 45 30 25 330 328